Retour au catalogue

CZ-6A DEB

ActifSSO
NORAD 54272·DEBRIS·🇨🇳 China

Lancé Nov 11, 2022 depuis Taiyuan Satellite Launch Center

Loading…

Prochains Passages (prochaines 24 heures)

TLE

FraisSource: Space-Track

Époque: Sep 14, 2026, 20:51 UTC

1 54272U 22151P   26257.86885553  .00000475  00000-0  23257-3 0  9999
2 54272  98.8358 292.4199 0027004 281.1521  78.6621 14.22451165198911

Suivez CZ-6A DEB en temps réel avec AllMySat

Download on the App Store